User: anonymous   Login
Location: State Camp
(41.2367°N, 77.7828°W)
Time: 12:33:15
(UTC-04:00)
Language:

Cosmos 1674 Rocket - Orbit

View from above orbital plane
View from above orbital plane
View from above satellite
View from above satellite

Ground track
Ground track

The orbit data is extracted from the following two-line orbital elements,

1 15945U 85069B   18114.20466013  .00000069  00000-0  53775-5 0  9996
2 15945  82.5303 201.7386 0019115 340.0565  19.9900 14.83967819767154
Epoch (UTC): 24 April 2018 04:54:42
Eccentricity: 0.0019115
inclination: 82.5303°
perigee height: 603 km
apogee height: 630 km
right ascension of ascending node: 201.7386°
argument of perigee: 340.0565°
revolutions per day: 14.83967819
mean anomaly at epoch: 19.9900°
orbit number at epoch: 76715

The dashed part of the orbit path shows where the satellite is in the earth's shadow,  

DLR